Presure
122 97 94 112 113 136 93 88 88 96 92 145 102 122 124 166 139 139 112 137 111 134 132 148 138 122 126 135 115 135 109 125 98 76 159 82 104 130 117 144 118 95 109
128 119 168 92 95 98 120 89 92 100 90 89 107 131 172 112 140 151 131 147 153 128 151 122 123 121 120 123 103 123 109 131 75 113 181 120 94 128 157 145 86 151 112
133 106 172 155 123 105 98 91 90 88 88 90 89 94 178 174 135 149 147 121 136 103 114 123 111 144 128 117 159 122 107 130 76 86 157 189 89 144 82 81 85 169 99
186 101 137 158 118 151 140 95 147 94 95 90 93 94 95 95 114 179 136 135 104 119 97 100 116 119 127 133 125 122 127 118 128 133 173 149 187 125 100 81 111 90 87
157 111 153 162 161 120 169 149 136 98 130 106 91 107 92 123 94 97 101 137 115 101 100 132 101 122 120 134 124 159 121 120 124 129 134 93 76 104 77 81 107 102 97
182 146 172 121 159 172 109 187 125 127 168 150 97 97 104 138 98 97 99 137 113 165 103 103 105 107 128 121 105 146 130 130 116 127 94 119 138 109 78 79 82 87 88
110 174 145 159 101 91 96 97 143 181 107 163 132 111 115 107 99 107 97 119 102 100 98 127 108 99 100 119 109 106 132 132 133 119 126 76 134 92 86 82 81 84 101
82 81 121 133 140 163 160 157 155 101 140 171 124 173 164 132 128 104 142 98 102 144 101 107 136 98 136 106 106 150 107 143 129 105 126 146 110 173 136 90 181 94 84
73 81 181 89 85 105 88 85 140 157 168 190 177 119 124 135 152 104 126 103 171 98 115 166 97 151 99 119 98 103 121 107 137 127 119 138 124 116 83 85 82 99 85
227 192 78 221 77 96 86 86 86 90 110 161 198 199 113 109 121 163 169 138 176 103 117 133 141 102 98 103 145 101 102 110 124 143 125 136 79 116 165 92 85 91 163
195 202 223 80 81 79 82 79 81 88 88 168 137 157 236 212 205 203 91 171 170 98 101 103 101 109 98 102 99 117 132 103 109 124 108 144 130 139 106 101 80 198 172
198 194 193 207 198 232 83 83 83 87 84 87 108 91 97 205 151 208 200 133 206 146 100 100 183 103 115 98 102 101 149 137 100 108 119 127 141 124 115 117 128 184 200
185 185 222 193 194 208 216 236 238 95 83 135 89 86 88 93 102 154 206 214 211 89 124 95 182 170 176 119 108 148 104 144 114 190 112 123 123 129 123 144 133 168 180
204 170 197 191 203 197 203 209 221 232 243 147 81 98 90 87 92 95 159 160 195 198 209 162 121 175 133 105 152 140 140 102 109 175 134 146 175 133 123 125 125 140 165
181 206 209 175 192 205 202 206 205 213 223 235 196 179 124 85 162 89 91 156 178 168 165 189 193 193 116 138 191 178 128 118 171 187 146 123 118 149 154 128 121 156 164
198 209 203 220 203 173 199 198 198 207 209 214 228 181 186 109 83 95 183 138 192 202 161 172 159 163 161 163 177 152 125 153 107 135 118 130 170 132 107 181 109 182 161
203 206 214 213 206 198 205 187 188 199 191 210 211 220 181 173 198 169 81 203 85 79 93 149 156 191 177 171 166 153 112 103 101 100 98 99 138 132 106 170 195 189 189
200 214 212 205 200 210 203 214 210 169 215 191 203 207 218 194 178 181 146 82 83 91 102 94 196 188 212 192 183 176 137 136 116 172 148 124 103 121 108 166 158 184 136
225 223 209 215 221 209 214 209 201 218 212 213 201 201 199 216 200 176 175 173 170 80 86 159 96 103 190 191 204 202 168 197 183 137 197 170 169 194 159 102 181 175 169
206 197 220 214 230 219 206 215 217 206 202 214 220 214 214 203 198 200 173 171 169 74 109 84 110 183 91 76 87 176 190 178 204 194 179 128 195 170 181 120 109 114 195
284 240 218 152 214 211 218 217 211 217 215 209 216 197 206 209 210 209 194 174 169 183 166 166 102 84 96 84 96 117 186 89 173 196 184 181 202 124 191 166 153 101 159
195 291 267 190 223 223 226 217 218 208 215 230 212 222 231 193 201 205 193 187 181 169 190 118 182 178 81 92 91 95 183 89 200 185 151 132 192 180 96 104 170 125 166
274 282 289 279 255 235 230 206 204 222 217 232 220 217 224 245 222 188 203 189 186 178 168 176 186 71 183 207 209 84 83 82 86 90 137 185 100 181 170 174 140 177 186
276 269 272 278 284 279 270 253 251 204 221 244 245 221 221 238 231 212 174 185 188 182 187 186 171 178 179 190 186 154 77 85 80 95 173 183 186 184 192 182 178 100 174
297 295 290 274 280 281 283 281 267 271 260 260 245 234 220 227 252 222 211 202 190 189 181 186 182 178 174 203 183 204 136 86 100 179 209 210 100 203 207 116 109 188 181
276 266 274 299 293 273 283 282 277 268 275 269 260 242 236 222 241 252 207 199 202 187 186 185 184 185 187 180 180 182 186 189 181 199 89 90 92 93 95 97 205 99 96
Wind_Speed
56 45 41 49 49 56 37 32 31 33 32 46 30 39 39 43 50 48 38 45 38 39 37 39 35 33 32 32 26 26 20 21 16 16 30 16 16 20 14 26 16 5 10
64 58 62 42 42 43 53 37 36 37 35 33 39 49 47 40 51 56 47 55 45 40 48 38 34 35 32 33 26 28 23 25 20 19 31 24 13 19 29 24 7 27 11
55 54 69 63 58 49 44 43 42 41 39 38 36 36 52 48 52 58 56 43 49 32 36 41 32 40 38 33 36 32 27 27 21 19 27 37 15 25 11 8 6 37 7
71 54 61 68 63 67 63 49 59 46 47 43 41 41 40 40 43 54 52 46 34 42 32 32 37 36 37 40 37 34 34 30 28 25 35 30 40 27 15 9 17 8 5
60 52 60 66 66 61 61 68 63 54 65 52 41 51 42 44 42 42 41 52 46 37 36 43 33 42 38 42 39 39 35 32 32 29 26 19 16 18 11 11 16 14 10
71 65 67 59 66 69 62 82 72 66 63 64 52 49 50 53 47 46 45 51 47 56 41 40 38 36 45 41 32 46 40 38 33 33 24 27 28 25 14 13 11 11 9
57 67 66 74 55 50 52 51 69 81 60 71 71 61 58 55 47 51 43 52 46 44 40 46 43 35 33 44 36 32 40 40 38 35 35 20 32 23 19 16 14 12 18
52 51 63 67 71 78 77 79 79 55 66 79 69 73 74 69 64 51 63 44 48 65 43 45 55 37 55 38 36 49 33 42 42 33 38 40 31 42 31 20 42 19 14
47 53 80 59 53 61 52 49 70 79 76 74 72 66 65 67 78 50 61 52 69 43 51 63 39 66 39 50 36 37 42 37 48 42 39 39 38 35 24 21 20 22 18
48 56 57 71 50 54 55 51 50 52 58 79 77 71 68 64 65 80 78 61 70 52 57 60 61 46 41 43 61 39 37 40 47 46 45 42 26 33 42 27 24 24 42
62 59 55 63 62 56 57 49 49 56 55 82 72 65 67 71 70 70 48 73 72 51 51 50 46 54 41 46 42 53 45 40 42 46 40 43 46 44 35 33 24 44 44
66 70 70 62 70 66 66 62 58 62 57 60 61 58 57 65 65 70 65 68 64 69 52 49 70 51 56 45 47 43 55 54 40 43 50 47 47 46 42 40 44 49 43
75 78 62 77 77 67 69 67 75 68 62 80 67 59 61 58 60 81 59 63 64 47 69 46 71 66 62 61 47 71 47 60 51 54 48 53 49 49 49 48 47 52 52
71 87 78 81 78 79 75 72 71 71 75 85 60 63 66 59 61 61 81 81 66 66 63 76 68 78 67 57 72 70 66 45 51 57 61 63 58 46 50 51 48 49 51
80 76 77 89 85 82 81 79 78 74 72 74 92 91 77 58 89 58 56 62 78 84 80 71 73 72 68 64 67 68 68 50 62 60 59 54 51 59 51 57 48 55 53
82 79 81 75 85 93 86 90 87 80 77 76 75 92 90 67 57 69 79 76 69 59 87 85 84 82 80 77 72 68 71 68 52 65 58 61 61 58 42 61 42 58 56
86 83 83 84 87 91 87 92 94 93 92 79 79 79 96 96 89 88 62 38 53 54 63 87 83 87 87 85 82 79 64 53 50 48 46 47 62 59 44 64 63 61 61
90 90 89 90 95 91 94 88 91 96 91 95 87 84 81 98 97 93 84 57 63 57 65 62 80 86 78 90 87 86 71 72 67 75 65 65 52 62 52 63 64 63 62
99 98 97 96 96 96 94 98 101 93 95 93 96 90 89 86 96 99 94 86 84 44 51 78 59 62 86 89 85 85 79 81 81 65 77 75 73 72 69 46 69 68 66
107 99 104 100 102 101 104 99 99 103 103 98 93 95 92 92 100 99 101 95 93 43 79 58 75 93 53 50 55 87 89 85 82 82 76 70 80 75 72 56 49 51 72
107 110 111 92 110 104 106 105 105 103 103 105 101 104 103 99 97 100 107 104 103 102 108 116 64 60 68 58 63 67 92 50 85 83 82 83 83 74 77 72 68 43 62
98 106 113 108 115 115 112 110 110 111 108 106 109 102 100 106 105 104 111 109 111 110 111 78 110 110 52 65 66 64 84 56 94 89 73 67 85 82 47 51 75 65 70
98 98 102 113 120 120 121 114 109 114 113 111 110 109 105 105 109 110 110 112 118 118 114 117 116 46 109 97 87 62 56 52 49 51 73 88 53 86 81 82 68 72 75
104 106 107 108 111 119 126 122 122 116 117 114 112 112 112 108 113 116 112 113 121 121 123 119 113 111 107 106 101 87 45 59 45 65 84 92 89 88 89 86 83 51 76
104 105 109 112 113 115 117 121 125 124 118 117 116 119 117 114 112 121 121 119 123 126 122 124 120 119 113 92 103 95 73 59 76 84 90 89 62 97 95 60 56 87 84
104 101 104 110 115 117 117 118 120 123 122 121 118 120 121 121 117 118 128 125 126 127 127 126 124 124 120 115 110 104 102 98 91 92 59 58 60 58 56 58 79 54 51
Wind_Direction
239 241 238 239 240 245 237 234 237 235 237 245 241 240 241 246 239 241 237 236 237 232 230 244 239 238 235 240 236 240 221 233 196 177 245 168 247 230 217 253 245 212 249
239 239 258 231 234 236 242 232 234 235 238 235 243 244 261 241 240 241 243 248 247 227 246 234 237 236 235 234 232 236 215 237 184 211 251 234 192 235 251 246 171 257 258
244 236 256 251 241 237 233 228 228 229 232 235 233 236 266 260 239 240 241 242 243 242 238 234 238 240 234 236 244 235 236 240 193 205 247 249 203 254 199 192 210 249 256
247 233 243 250 240 248 249 231 257 230 233 233 234 234 235 239 241 262 240 249 239 233 239 241 239 238 241 241 238 239 237 235 241 244 248 246 247 238 223 213 241 253 256
243 237 246 249 252 237 254 250 243 232 240 237 232 236 231 241 237 239 238 241 233 236 237 245 239 237 236 243 239 253 239 237 238 241 246 214 210 237 219 226 247 251 255
238 238 235 240 235 243 230 251 238 240 248 246 237 235 235 241 232 236 238 244 239 254 238 238 240 240 236 238 239 249 239 240 237 240 222 239 257 236 223 234 231 229 236
241 241 239 239 238 241 241 244 243 249 236 242 239 240 239 236 235 237 237 238 238 236 234 248 240 235 236 241 240 239 242 238 239 240 242 227 249 228 221 228 239 242 253
243 246 242 243 244 241 238 240 240 243 249 248 238 246 245 241 240 236 242 240 239 243 236 239 239 239 244 238 242 248 238 241 242 235 244 246 238 250 244 234 246 241 247
256 251 243 243 245 245 242 241 243 245 242 249 248 241 243 243 242 241 239 240 248 241 243 251 236 246 238 238 238 242 242 239 235 244 242 253 245 245 238 238 243 247 248
250 246 256 242 256 252 248 248 248 246 242 246 246 250 241 242 243 238 241 246 246 242 244 242 246 237 238 242 248 240 240 245 244 245 245 251 246 246 253 234 241 245 251
242 243 248 251 252 254 251 251 248 249 249 245 247 239 254 253 255 253 239 244 244 241 242 242 241 242 238 241 242 243 245 241 246 245 245 250 247 250 243 243 246 254 253
244 242 242 244 244 243 251 251 248 246 245 247 245 248 246 246 243 251 248 241 250 240 240 241 250 243 242 242 244 244 238 236 239 245 248 248 248 250 247 250 255 256 255
246 246 249 242 242 242 242 245 243 246 246 241 245 245 249 249 246 245 248 255 252 236 237 238 246 244 247 243 241 247 244 239 248 246 248 246 249 246 252 256 258 258 256
250 247 244 245 240 241 239 241 242 243 243 241 243 245 245 245 248 246 247 245 239 241 249 245 239 246 241 245 245 243 242 244 247 245 237 253 249 250 252 253 256 260 257
251 250 249 247 245 239 239 237 238 240 241 242 235 238 242 246 244 245 248 242 245 248 245 246 240 242 238 241 241 244 241 241 245 245 247 247 254 244 249 251 255 258 256
251 249 245 247 242 246 244 240 241 234 237 237 238 233 233 239 242 245 241 247 251 247 246 247 249 250 249 248 243 243 242 242 244 240 248 246 246 247 255 250 255 251 256
249 250 250 245 241 240 241 242 242 239 242 234 234 235 232 238 231 241 238 258 241 240 240 246 246 246 248 250 248 246 239 239 241 241 243 243 250 250 247 253 250 249 250
250 250 246 247 244 240 240 240 238 245 236 240 234 230 232 230 236 233 241 233 240 244 242 243 252 250 242 245 244 248 244 245 242 249 244 245 245 250 248 247 255 247 258
252 251 248 244 244 243 240 239 238 238 236 237 234 232 227 228 228 234 236 233 236 232 237 246 245 247 244 244 239 237 244 243 247 246 243 251 252 244 249 245 249 250 254
257 261 248 249 244 241 243 240 239 236 237 233 236 228 225 225 224 227 234 234 235 228 243 238 243 244 240 233 240 241 244 245 236 241 244 246 244 248 244 245 247 248 250
255 247 250 258 247 247 241 239 240 238 235 234 230 231 227 223 222 222 225 232 236 230 239 244 237 237 242 240 240 240 245 242 246 239 245 250 242 245 247 253 254 244 249
254 254 249 249 246 245 242 241 238 239 237 236 232 228 229 229 223 221 224 224 228 237 225 234 242 247 234 239 240 242 239 242 243 247 246 247 244 250 245 247 255 251 256
257 256 253 249 245 243 242 244 242 237 236 236 232 229 227 227 219 226 221 222 224 229 241 242 238 237 247 239 235 240 240 238 240 242 244 244 242 249 251 252 250 252 252
253 252 251 250 248 245 245 245 245 240 236 236 233 231 227 226 224 218 233 226 223 229 227 230 245 245 248 245 247 245 237 244 240 245 243 245 248 248 248 249 251 248 253
257 254 250 249 247 247 244 242 242 243 240 238 231 230 229 227 227 219 219 223 222 225 232 231 236 242 248 234 248 240 245 244 244 244 244 244 245 246 248 247 246 252 253
260 254 251 249 246 246 244 243 240 240 239 238 233 229 229 228 226 226 222 224 222 226 229 231 234 237 237 244 246 248 249 247 246 248 244 246 248 245 243 245 249 247 246